RH
33 32 33 33 32 30 31 34 34 32 32 32 34 35 35 36 35 36 36 34 32 29 26 26 25 25 26 27 27 28 29 30 29 27 25 23 22 20 19 17 16 14 14 14 14 13 12 11 10 9 9 10 10 10 10 11 10 11 15 15 14 18 18 18 21 20 19 19 20 19 19 23 22 19 18 17 17 17 17 16 16 16 14 14 13 13 14 14
31 32 33 33 33 34 36 40 41 38 34 34 34 34 34 34 32 33 33 32 31 28 26 26 25 25 25 24 24 23 25 26 24 24 24 23 21 19 18 16 14 12 10 9 8 7 6 7 7 7 7 8 9 9 9 10 10 13 17 15 17 21 18 18 21 20 20 18 20 20 19 21 21 18 17 17 17 16 18 16 14 14 12 12 12 12 13 14
29 30 31 31 33 35 36 37 39 38 36 36 37 35 34 32 30 28 30 31 30 27 25 23 23 22 21 21 20 20 21 21 19 20 21 20 18 16 14 12 10 8 7 6 6 6 6 6 7 7 7 7 8 9 9 10 10 12 14 16 22 24 21 19 20 19 19 18 20 19 18 20 18 17 17 18 17 17 19 17 14 14 11 11 12 13 13 14
25 27 28 30 31 32 33 33 33 33 33 35 36 35 33 30 29 27 28 28 26 24 22 21 20 19 18 18 18 18 18 18 17 18 18 16 14 12 10 8 7 6 6 7 6 7 7 7 7 7 8 8 9 9 10 10 11 13 15 21 24 24 22 19 18 18 17 17 18 17 17 17 16 16 16 17 17 16 16 13 13 13 11 11 11 12 13 13
18 20 22 25 28 28 29 29 30 30 30 31 33 33 30 28 28 27 26 24 22 21 20 20 18 17 16 16 17 15 15 15 15 15 15 13 11 8 7 6 6 6 7 7 7 8 8 7 7 7 7 7 9 9 11 13 14 17 20 22 22 21 20 18 16 16 15 16 17 17 16 15 14 15 14 15 18 17 13 10 11 11 11 11 10 10 11 12
14 14 17 21 25 25 26 26 27 29 29 30 32 32 30 28 27 26 24 23 22 21 21 20 18 17 15 16 15 12 12 13 12 12 12 10 8 7 7 6 6 7 7 7 7 8 7 7 7 8 9 11 13 14 15 19 19 20 22 21 20 19 18 16 16 16 15 16 16 16 14 13 14 14 14 15 17 15 11 10 11 10 10 11 10 10 10 10
14 15 16 19 23 23 23 22 24 27 29 30 32 31 29 27 25 25 24 22 22 21 19 17 17 15 14 14 13 10 10 11 10 10 9 9 8 7 7 7 7 7 6 7 8 8 8 9 10 12 14 18 20 19 19 21 20 20 21 21 18 17 16 16 17 16 15 15 15 14 14 14 15 15 14 14 13 11 10 11 11 12 12 13 13 13 13 13
15 17 16 16 19 21 21 20 22 26 29 30 30 30 27 26 25 24 23 21 20 18 16 14 14 12 11 12 11 9 9 10 9 8 8 8 8 7 8 8 7 7 7 8 10 12 13 15 16 16 18 20 19 19 18 18 18 18 18 18 17 17 16 16 15 13 13 14 14 15 16 14 14 14 15 13 11 11 12 13 13 13 14 15 15 15 15 15
14 17 16 15 16 18 19 20 22 24 26 28 28 27 25 24 23 22 20 19 17 15 14 13 12 10 9 9 8 9 10 9 9 8 8 7 7 7 8 8 9 10 12 13 14 15 16 16 17 17 17 16 15 16 15 14 15 17 16 16 17 17 16 14 13 12 13 13 13 14 16 14 13 14 15 13 11 12 13 13 14 14 14 15 16 16 16 16
12 14 15 15 15 16 18 20 22 24 24 25 25 24 23 22 21 20 18 17 15 13 13 12 10 9 8 7 8 9 10 8 8 8 8 8 9 9 10 12 14 15 16 16 16 15 14 13 12 13 13 13 13 14 15 14 14 16 16 16 17 16 14 13 13 13 12 12 12 13 15 15 13 14 15 12 12 13 13 13 14 14 15 16 16 16 16 15
11 12 13 14 15 16 16 19 21 21 21 21 21 21 20 19 18 17 16 14 13 12 12 11 9 9 8 7 9 10 9 9 10 10 10 11 12 13 14 15 16 16 15 15 14 13 12 11 10 11 12 13 14 15 16 14 14 15 15 15 17 16 13 13 13 12 12 11 11 13 14 13 14 16 16 12 13 14 13 13 13 14 15 15 15 14 14 14
10 11 11 13 14 14 15 17 17 17 17 18 18 19 18 17 15 14 13 12 11 10 10 11 10 9 10 9 10 11 11 11 12 12 12 13 14 15 14 14 14 13 12 12 11 11 12 12 12 13 13 13 14 15 14 14 15 16 14 15 18 17 13 12 12 12 11 11 11 12 13 14 17 18 14 12 14 13 13 13 13 14 14 13 13 12 12 12
10 10 11 12 12 13 14 14 14 15 16 16 17 16 15 14 12 12 11 11 10 10 11 12 11 11 11 10 11 11 11 12 12 13 13 13 13 12 12 11 11 11 11 12 12 13 13 13 13 13 12 13 14 13 13 13 13 14 14 17 19 15 11 10 12 13 11 12 12 12 12 13 18 18 15 14 14 13 13 12 13 14 13 12 12 11 11 11
10 10 11 12 12 12 13 13 14 14 15 15 15 14 13 12 11 11 11 12 12 12 13 13 12 11 10 11 11 11 12 13 14 13 12 12 11 10 10 11 12 13 13 13 14 14 14 13 11 11 11 12 12 12 15 16 15 15 16 21 21 13 11 13 14 16 14 13 12 14 16 15 15 16 15 15 14 15 14 13 13 14 13 12 11 11 10 10
10 10 11 12 12 13 13 14 14 14 14 14 13 12 12 11 11 12 13 13 13 12 12 12 12 11 11 12 12 13 13 13 13 12 11 11 11 12 12 13 13 13 13 12 13 13 13 12 9 10 11 11 12 15 19 21 22 21 14 17 22 16 15 16 16 19 18 14 13 14 19 19 16 15 14 14 14 15 15 14 15 16 15 15 14 14 13 13
10 11 12 13 14 14 14 14 14 14 13 13 13 12 12 13 13 13 13 12 12 12 12 12 13 13 13 13 13 12 12 11 11 11 12 12 12 13 13 13 12 11 11 10 11 12 12 11 10 11 11 13 18 20 22 23 24 24 17 15 20 17 16 14 14 20 20 15 15 15 18 19 18 15 13 13 14 15 16 16 17 18 18 17 17 16 17 17
13 13 14 14 14 15 15 14 14 13 12 12 13 13 13 13 14 13 13 12 13 13 13 14 14 14 13 11 11 11 10 10 10 12 13 12 11 11 11 10 9 9 9 8 9 11 10 10 10 11 13 17 21 20 21 21 19 22 22 20 20 18 17 15 13 17 19 16 17 19 18 19 19 17 15 15 16 17 16 17 18 19 19 19 18 17 18 18
14 15 15 15 15 15 15 14 14 13 13 13 13 13 13 13 13 13 13 14 14 14 14 14 12 13 11 10 12 11 11 11 10 10 11 10 9 9 9 8 8 9 9 9 9 9 9 9 11 13 15 18 21 21 19 17 16 20 22 22 23 20 19 18 15 17 19 17 17 19 18 18 19 19 19 18 19 17 17 19 20 20 20 20 20 19 19 20
15 15 15 15 15 15 14 14 14 14 13 13 13 13 13 13 13 13 13 14 14 14 14 13 13 14 13 12 13 11 10 10 8 7 7 8 8 7 8 9 9 9 10 11 11 11 12 12 15 17 17 18 21 22 20 18 19 21 22 23 24 23 21 19 18 20 21 18 19 20 18 19 20 21 21 20 19 18 19 21 21 21 22 22 22 21 21 22
15 15 14 15 15 15 14 14 14 13 13 14 15 15 14 15 15 14 13 12 12 12 13 14 15 16 14 13 12 9 8 8 6 6 7 7 7 7 7 8 9 10 14 18 16 13 13 15 18 17 17 20 21 22 22 22 23 24 24 25 26 25 21 16 17 22 21 19 22 23 22 22 22 23 22 20 20 19 20 22 22 23 23 23 24 23 23 24
15 14 14 14 14 14 13 13 14 14 15 16 16 15 15 14 15 14 12 12 12 12 13 13 14 14 13 12 10 8 6 6 6 6 7 7 6 7 7 9 12 12 17 21 17 12 12 14 17 16 18 20 22 25 25 24 25 26 26 25 24 22 19 14 17 23 22 20 22 24 23 22 22 23 22 20 21 21 22 23 24 24 24 25 25 25 25 25
14 14 15 15 15 16 15 16 16 15 15 14 13 13 13 13 14 14 13 13 13 13 13 11 10 10 11 10 9 8 6 7 7 5 6 7 6 8 9 13 17 16 19 18 14 16 16 14 16 19 21 22 24 27 25 24 25 25 25 22 19 19 18 18 20 25 24 21 23 25 24 23 24 25 22 22 23 25 26 26 26 25 25 26 26 27 27 25
16 17 18 18 18 17 16 15 14 13 12 12 12 12 13 14 14 14 13 12 12 11 10 9 8 7 9 10 9 8 7 8 9 6 7 7 7 10 11 14 19 20 21 18 13 15 15 13 17 21 22 19 20 24 23 21 22 22 21 19 18 19 20 19 20 24 24 23 26 26 24 25 25 22 21 23 25 28 29 27 26 27 27 28 28 29 29 27
18 18 17 16 16 14 14 13 13 13 13 13 13 13 13 13 14 13 12 11 10 8 8 8 7 7 8 9 9 9 8 8 9 8 7 8 8 11 12 14 18 19 21 21 17 15 13 14 19 23 23 18 16 21 22 19 20 21 22 20 18 20 22 20 21 23 23 24 27 24 22 22 20 20 22 25 28 30 30 27 26 27 28 30 30 30 31 30
16 15 15 15 14 14 14 14 15 15 15 15 14 13 13 13 13 13 11 12 10 7 8 8 7 7 8 8 8 9 9 7 9 8 7 8 8 10 12 12 14 16 20 22 19 16 15 16 18 21 24 22 17 19 20 20 21 21 23 22 19 21 24 24 25 24 20 21 24 23 24 23 19 20 24 26 28 29 28 27 27 26 27 29 31 32 33 34
16 16 16 16 16 16 16 16 15 14 15 15 13 13 14 14 15 14 15 17 12 7 8 8 7 8 8 7 7 9 10 8 7 7 7 7 7 9 12 12 13 16 20 21 17 16 16 18 20 21 22 22 19 17 19 22 22 20 22 23 22 24 25 25 27 24 18 18 21 24 26 25 21 21 25 27 27 28 27 28 29 28 28 30 32 33 34 36
17 17 17 17 16 16 15 15 14 14 15 14 14 14 13 14 15 14 17 20 14 7 8 8 7 8 8 8 6 8 10 8 7 6 7 8 8 8 11 14 15 15 19 21 16 15 17 19 23 24 23 22 18 17 19 22 22 20 22 24 24 24 23 25 27 24 23 21 21 26 28 26 24 23 26 27 27 29 29 30 30 30 31 32 34 34 35 37
16 16 16 15 14 14 14 13 13 14 14 13 13 12 12 14 13 12 17 17 11 8 9 9 8 7 7 7 6 8 9 8 8 7 6 8 8 8 10 14 16 15 17 19 15 15 19 21 23 24 23 22 18 18 21 24 23 22 24 25 25 25 25 27 28 29 31 23 17 24 28 25 24 23 26 29 28 31 32 31 31 32 33 34 35 36 37 39
15 15 14 14 14 14 13 13 13 13 12 12 12 10 12 13 11 14 18 13 8 9 9 8 8 8 7 8 7 8 8 9 9 8 7 8 9 10 11 13 16 17 17 17 15 16 20 22 24 23 21 21 21 22 24 25 23 22 24 23 25 28 28 29 30 31 31 24 19 22 24 23 23 25 29 31 31 34 36 34 34 34 35 36 37 38 39 41
14 14 13 13 13 12 12 13 13 12 12 12 11 11 11 11 15 19 16 11 9 10 9 8 9 10 10 12 11 10 10 10 10 9 9 10 10 11 12 12 15 19 19 19 18 17 20 24 27 26 23 23 25 25 25 27 24 23 23 20 19 21 24 29 31 26 22 22 22 21 23 23 26 32 36 35 36 40 41 38 37 37 38 40 41 42 44 45
13 12 12 12 11 11 11 11 11 11 11 10 10 11 10 13 21 21 13 10 10 10 9 10 13 14 15 16 12 12 14 13 11 12 13 14 14 13 14 14 15 20 21 20 20 21 22 23 24 25 23 23 25 22 22 27 27 24 23 20 16 17 21 29 32 25 20 22 21 22 26 26 29 37 39 39 40 42 45 43 41 42 43 45 48 49 50 52
11 11 10 11 10 10 10 9 10 9 9 9 9 10 11 14 17 15 14 12 9 10 11 13 16 18 18 17 13 14 16 14 13 15 17 19 20 18 18 19 18 18 19 19 21 22 21 20 19 21 22 22 22 19 19 22 23 23 23 22 25 28 28 28 30 30 28 22 18 22 28 28 31 38 41 42 42 42 45 47 47 48 50 52 54 55 56 57
9 8 9 9 9 9 9 9 9 7 8 9 8 9 15 16 12 12 16 14 9 11 13 16 19 19 17 15 13 16 16 14 13 15 17 20 22 21 21 23 21 17 18 20 22 22 22 21 19 19 20 21 20 19 18 19 20 24 25 25 30 36 37 35 34 34 32 24 17 21 30 34 37 42 42 41 42 44 47 50 53 56 57 59 59 59 60 59
8 8 8 8 8 8 8 7 7 7 7 6 8 12 14 12 10 11 14 14 14 15 17 19 19 16 15 13 14 17 16 14 14 16 18 19 20 22 21 22 23 22 21 22 23 22 22 22 19 17 17 18 19 20 20 20 21 26 27 27 29 31 37 42 41 37 34 30 25 24 30 35 38 42 44 41 41 46 51 56 60 62 63 64 62 61 60 58
7 7 7 7 7 6 6 6 6 7 7 5 9 17 13 9 12 14 13 15 18 18 18 18 16 15 15 15 17 17 13 14 16 17 18 19 20 21 22 22 24 25 24 23 23 23 23 21 18 18 18 18 20 22 23 21 20 25 28 28 29 28 33 41 41 38 40 46 43 33 31 35 39 41 42 41 43 50 58 61 63 64 62 60 60 60 57 56
6 6 6 6 6 6 6 6 6 7 6 5 10 15 14 11 13 15 16 17 18 19 19 17 15 16 16 17 20 18 13 15 17 15 16 19 21 21 22 25 26 26 24 24 24 24 24 20 17 18 19 19 20 22 23 21 18 22 26 25 26 28 34 42 44 41 46 55 51 37 32 36 41 44 44 46 51 55 58 59 58 58 56 57 61 60 57 57
6 6 5 5 5 6 6 5 6 6 4 7 12 14 15 15 14 16 18 19 20 20 19 16 13 14 16 17 19 19 16 15 15 13 14 17 18 20 24 25 25 26 26 26 26 25 25 23 19 19 18 18 19 19 22 25 23 24 27 25 27 31 35 42 51 54 57 61 51 37 35 36 41 49 50 52 56 55 55 56 55 53 51 54 55 52 51 52
6 5 5 5 5 5 6 5 5 5 4 11 19 18 16 16 16 18 20 20 21 21 18 15 11 12 16 16 16 19 19 16 15 15 14 15 17 20 24 24 23 27 28 26 25 25 27 26 23 20 18 18 17 16 19 24 26 27 28 29 31 37 40 43 51 58 65 68 57 46 42 38 44 55 55 55 60 62 61 59 55 51 52 58 56 50 49 48
6 5 4 6 6 5 6 5 4 4 6 14 22 20 17 18 18 19 21 21 21 21 18 15 12 13 16 16 17 22 23 18 17 17 15 15 17 20 24 24 23 27 28 26 26 27 28 27 23 19 18 18 17 17 19 21 26 28 30 33 35 39 43 45 48 54 64 72 70 65 54 42 49 62 61 63 69 69 66 61 59 63 68 70 63 53 51 49
5 5 5 5 6 6 5 4 5 8 13 17 20 18 17 19 18 19 21 22 21 18 16 17 16 15 17 18 18 21 24 22 21 20 18 17 18 21 26 28 27 28 28 26 28 28 27 27 24 19 17 17 17 18 20 22 26 31 36 42 43 43 44 45 45 47 58 73 79 80 68 51 55 65 65 69 72 66 65 69 73 79 79 72 61 55 55 52
5 6 6 5 6 6 4 6 11 17 21 20 19 19 19 19 17 17 20 21 20 17 16 19 19 17 18 18 18 21 24 25 25 23 21 20 18 20 27 31 32 32 29 27 29 28 27 29 28 22 18 17 18 20 22 27 31 35 42 47 49 50 51 54 55 50 56 72 80 85 80 62 59 65 65 68 67 64 70 79 82 83 79 70 61 57 54 47
5 8 7 5 6 5 4 11 17 20 23 21 18 19 20 19 17 16 17 18 18 17 16 18 20 21 21 19 20 24 26 25 26 23 21 21 20 21 28 32 34 34 30 28 30 28 28 31 28 24 20 18 21 26 29 32 34 36 43 47 50 55 57 63 71 68 65 68 71 79 79 61 55 63 65 66 66 70 78 83 84 82 73 60 50 45 43 41
6 8 6 5 6 4 5 13 17 18 21 20 17 17 18 18 16 15 17 18 18 17 16 18 19 19 20 22 24 25 23 22 23 22 22 25 25 27 31 31 32 33 30 28 30 28 29 30 27 23 19 16 21 29 31 33 37 40 45 48 52 56 58 62 68 70 70 66 66 79 76 55 52 62 62 63 68 76 82 81 76 69 55 42 38 40 44 46
6 7 6 5 5 4 8 14 16 19 20 17 15 16 16 16 17 17 18 19 20 20 18 19 19 18 21 25 26 25 23 21 20 22 24 26 27 29 31 31 32 32 30 29 31 29 27 29 31 30 26 22 22 26 28 30 38 45 45 47 51 54 57 59 60 64 69 61 62 80 78 56 52 59 57 59 65 69 72 65 57 51 42 38 42 49 51 52
6 6 5 5 5 5 9 13 14 20 22 18 16 17 15 15 16 17 18 19 20 21 19 18 19 21 24 26 27 29 28 22 21 25 27 26 27 30 30 31 32 32 34 34 33 30 27 29 34 34 35 37 36 35 35 36 42 47 48 49 53 55 57 59 60 67 71 63 61 76 79 64 57 59 59 60 61 61 59 49 42 42 43 45 53 56 55 58
6 7 7 7 6 6 9 9 10 16 20 20 18 16 14 15 13 14 17 18 18 19 19 19 20 22 25 26 29 32 30 26 25 28 29 27 28 29 30 32 31 31 36 37 32 31 32 33 36 35 34 38 40 37 37 42 47 51 54 54 55 57 59 61 66 70 75 75 70 70 74 73 67 63 61 60 58 57 53 44 42 45 49 55 61 61 60 67
8 10 10 9 7 7 11 11 10 13 16 17 17 15 16 18 15 13 15 16 18 18 19 21 23 23 25 28 29 29 28 27 26 26 28 30 30 28 29 32 32 30 33 34 31 31 31 31 35 37 33 34 37 36 40 49 51 50 53 56 56 59 60 63 72 75 77 83 78 65 69 80 74 62 58 57 56 55 49 44 47 53 57 60 63 65 69 75
8 10 10 9 9 11 14 12 12 14 15 18 19 17 18 21 18 16 17 16 17 17 17 19 23 27 30 32 29 28 28 28 26 26 28 31 32 30 29 31 32 29 30 31 29 28 28 29 33 37 35 35 37 40 44 49 48 44 48 54 56 60 63 67 76 77 77 84 83 73 74 78 66 53 52 54 55 54 48 46 53 60 60 61 65 71 77 79
8 9 9 9 11 13 15 13 12 14 16 20 22 19 18 19 17 18 20 19 16 17 17 18 22 28 35 37 32 28 28 28 27 28 30 30 31 31 30 30 30 28 29 32 30 27 27 30 35 38 37 38 40 43 44 44 43 43 47 52 55 58 63 68 72 72 72 76 76 72 69 59 47 46 51 52 51 48 44 46 55 60 58 61 70 77 80 83
6 7 8 9 11 13 13 12 12 15 18 20 19 18 20 20 18 18 21 19 16 18 20 22 25 31 38 41 36 30 27 26 26 28 31 32 33 33 31 30 32 31 32 35 35 29 26 29 35 38 37 36 40 44 42 40 42 45 48 53 55 56 59 64 67 68 68 65 60 56 52 43 39 46 52 48 46 44 42 47 55 57 56 63 74 80 82 85
6 6 6 9 13 14 13 12 15 20 23 21 19 19 20 20 20 21 21 19 18 20 23 26 30 34 38 39 35 32 30 29 29 30 30 31 32 32 31 32 35 36 36 38 38 35 33 33 35 38 38 34 35 40 40 38 43 50 54 57 58 59 59 61 64 65 61 57 52 48 46 45 45 49 48 44 43 43 44 49 56 58 59 67 79 85 85 87
7 7 6 8 13 15 16 16 18 20 20 19 21 23 21 21 23 23 19 19 21 23 25 28 31 34 36 33 29 29 31 32 33 34 34 34 34 34 35 37 37 37 39 41 40 38 40 41 40 44 45 37 33 37 37 37 43 50 54 57 60 62 59 55 56 56 51 50 51 48 46 46 44 43 44 44 43 43 44 50 56 60 65 73 80 85 88 89